sat.trackr.live / text

‹ back to catalog

STARLINK-2250

NORAD 48593 · 2021-041AS

PAYLOAD ACTIVE UNKNOWN

§ Identity

Operator
Country
US
Launch date
2021-05-15
Launch site
AFETR
Launch vehicle
Mass (kg)
RCS (m²)

Purposes: comms

External: N2YO · Heavens-Above · Gunter

§ Orbital elements

Epoch: 2026-05-24T17:25:50.255040Z

Period
94.01 min
Inclination
53.1603°
Eccentricity
0.0000947
Mean motion
15.31704956 rev/d
Perigee alt
470.1 km
Apogee alt
471.4 km
Semi-major
6,848.9 km
B*
-2.5068e-5
RAAN
146.2520°
Arg perigee
132.3399°
Mean anomaly
227.7683°
Rev number
27,673

§ Raw data

STARLINK-22501 48593U 21041AS  26144.72627610 -.00001143  00000+0 -25068-4 0  99902 48593  53.1603 146.2520 0000947 132.3399 227.7683 15.31704956276730

JSON: /api/v1/satellites/48593 · /tle

For live sub-satellite position, see the globe view (requires WebGL).

§ Visibility from observer

Set your observer location to see the next 7 days of passes ≥ 10°. The values pass through the URL so the page stays shareable.

No JS? Fill the form by hand. The geolocation button needs JavaScript.